CZ-6A DEB

Satellite information

Favourite Embed

Satellite Type and Status

DEBRISIN ORBIT

Key statistics

Satellite CZ-6A DEB at a glance.

Uptime

334

Days in orbit

Revolutions

≈ 14.4

Per day

Orbit

LEO

Low Earth Orbit

Inclination

89.0

Latest

Satellite identification and parameters

Extended collection of information and parameters for CZ-6A DEB.

Object identification

Identified? True

Debris? True

Object name: CZ-6A DEB

International designator: 2024-140FF

Object number (NORAD): 60780

Object ID (CCSDS): 60780

Country: PEOPLES REPUBLIC OF CHINA (PRC)

Current information (Y/N): Y

RCS size: SMALL

Orbital parameters

Period: 100.222 minutes

Inclination: 88.9727 deg

SMA: 7147.199 km

Apoapsis: 829.758 km

Periapsis: 708.37 km

RAAN: 311.3908 deg

Eccentricy: 0.008492

Argument of periapsis: 82.2641 deg

Mean anomaly: 278.8191 deg

Mean motion: 14.36808846 rev/day

Mean motion (dot): 0.00000445 rev/day2

B* drag term: 0.00013933 1/REarth

Two-line elements (TLE)

Creation date: July 5, 2025, 10:56 p.m.

Reference frame: TEME

Reference center: EARTH

Epoch: July 5, 2025, 8:23 p.m. UTC

TLE line 0: 0 CZ-6A DEB

TLE line 1: 1 60780U 24140FF 25186.84977251 .00000445 00000-0 13933-3 0 9992

TLE line 2: 2 60780 88.9727 311.3908 0084920 82.2641 278.8191 14.36808846 47044

Live tracking on map

Real-time ground track for satellite CZ-6A DEB.

In-orbit conjunctions

A list of the most updated potential collisions computed for object CZ-6A DEB.

Target Orbit TCA Probability of collision Miss distance Type
FENGYUN 1C DEB SSO 2025-03-02 06:53:18 0.000247682 298.0 (m) DEBRIS
COSMOS 2251 DEB LEO 2025-01-18 17:19:23 0.0002074083 436.0 (m) DEBRIS
SL-16 DEB LEO 2024-11-21 00:26:36 0.0001277196 324.0 (m) DEBRIS
SL-16 DEB LEO 2024-11-13 12:36:21 0.0001990152 595.0 (m) DEBRIS
TIROS 5 LEO 2024-11-05 03:42:12 0.002193468 548.0 (m) PAYLOAD

Associated space launch

18 Low Earth Orbit communication satellites with Ku, Q and V band payloads for the G60 constellation operated by Shanghai Spacecom Satellite Technology (SSST) with funding backed by the Shanghai local government. Initial constellation will consist of 1296 satellites by 2027 with long term plans to expand it to 12000 satellites.

CZ-6A DEB was lifted into orbit during the mission ‘Long March 6A | G60 Polar Group 01’, on board a Long March 6A space rocket.

The launch took place on Aug. 6, 2024, 6:42 a.m. from Launch Complex 9A.

For more information about the launch, click the button.

Launch to space Long March 6A | G60 Polar Group 01
Long March 6A | G60 Polar Group 01

Agency: N/A

Status: Launch Successful

Launch date: Aug. 6, 2024, 6:42 a.m. UTC

Rocket: Long March 6A

Launch pad: Launch Complex 9A

Location: Taiyuan Satellite Launch Center, People's Republic of China

...

Latest news about this satellite

News about space launch
Brightness of first Chinese broadband constellation satellites alarms astronomers

The first satellites of a Chinese broadband constellation are significantly brighter than those of Western systems, posing a new challenge for astronomers.

News about space launch
Chinese rocket stage breaks up into cloud of more than 700 pieces of space debris

HELSINKI — A Chinese Long March 6A rocket’s upper stage has fragmented into a cloud of over 700 pieces of space debris, adding to concerns about long-term orbital safety. China […]

News about space launch
China's Thousand Sails Megaconstellation Kicks Off with Dangerous Debris Field

China's Thousand Sails Megaconstellation Kicks Off with Dangerous Debris Field


Newsletter sign-up

Weekly statistics, charts and insights to help you stay on top of the space industry.